[[{"header":{"parameterUnit":"m.s-1","parameterCategory":1,"la1":30.2991,"la2":30.254,"lo1":-89.0895,"lo2":-89.0444,"dy":0.0017,"dx":0.0017,"nx":28,"ny":28,"refTime":"2024-06-27T09:00:00:Z","depth":0,"parameterNumber":2,"parameterNumberName":"U-component_of_WINDS"},"data":[0,0,0,0,0,0,0,0,0,0,0,0,0,0,0,0,0,0,0,0,0,0,0,0,0,0,0,0,0,0,0,0,0,0,0,0,0,0,0,0,0,0,0,0,0,0,0,0,0,0,0,0,0,0,0,0,0,0,7.467,7.4673,0,7.4916,7.4919,7.4922,7.4879,7.4874,7.487,7.4866,7.512,7.5131,7.5142,0,0,0,0,0,0,0,0,0,0,0,0,0,7.4163,7.4173,7.467,7.4673,7.4676,7.4916,7.4919,7.4923,7.4879,7.4874,7.4869,7.4864,7.5117,7.513,7.5143,0,0,0,0,0,0,0,0,0,0,0,0,0,7.4394,7.4176,7.4669,7.4683,7.4687,7.4915,7.4919,7.4924,7.4881,7.4874,7.4868,7.4861,7.5113,7.5128,7.5144,7.5375,0,0,7.5194,7.5201,0,0,0,0,0,0,0,0,7.4381,7.4412,7.4678,7.4683,7.4687,7.486,7.4834,7.5075,7.4882,7.4807,7.4866,7.4858,7.5039,7.5061,7.5122,7.5387,7.5398,7.5195,7.5205,7.5212,7.5217,0,0,0,0,0,0,0,7.4365,7.4402,7.4767,7.4682,7.4688,7.4678,7.4703,7.4879,7.4957,7.4813,7.4811,7.484,7.504,7.5106,7.5127,7.5401,7.5195,7.5209,7.5219,7.5226,7.5867,7.5874,0,0,0,0,0,0,7.4344,7.4389,7.4759,7.4775,7.4515,7.4692,7.4721,7.4811,7.4955,7.497,7.4846,7.4837,7.5082,7.5108,7.5136,7.5414,7.5212,7.5227,7.5237,7.586,7.5869,7.5877,0,0,0,0,0,0,7.4334,7.4378,7.475,7.4581,7.4628,7.4708,7.481,7.482,7.4885,7.4979,7.4993,7.4898,7.5077,7.5113,7.5315,7.5423,7.5235,7.5249,7.5851,7.5863,7.5873,7.5973,0,0,0,0,0,0,7.4319,7.4374,7.4462,7.4583,7.4637,7.4925,7.4816,7.4829,7.4913,7.4904,7.5032,7.5047,7.5075,7.5291,7.5332,7.5442,7.5262,7.5842,7.5856,7.5869,7.5961,7.5986,7.6008,0,0,0,0,0,7.4301,7.4481,7.4467,7.4512,7.4748,7.4931,7.4961,7.4989,7.4922,7.5011,7.5071,7.5043,7.5405,7.5313,7.5357,7.5474,7.5835,7.5852,7.5868,7.595,7.5981,7.6008,0,0,0,0,0,0,7.4371,7.4497,7.4483,7.4707,7.4809,7.4923,7.5036,7.5022,7.5145,7.5132,7.5162,7.5191,7.5396,7.5455,7.5351,7.5704,7.5611,7.5637,7.5658,7.5688,7.5711,7.5692,7.5275,0,0,0,0,0,7.4413,7.455,7.4653,7.4841,7.4893,7.4956,7.5037,7.5049,7.5156,7.5198,7.5274,7.5379,7.5516,7.5605,7.5737,7.597,7.5996,7.6072,7.6096,7.6115,7.6137,7.6263,7.6298,7.5931,7.5931,7.593,0,0,7.45,7.4586,7.4671,7.4857,7.4937,7.5079,7.4992,7.5146,7.5251,7.5222,7.5417,7.5476,7.5595,7.5813,7.5913,7.5869,7.6244,7.6136,7.615,7.6162,7.6284,7.6318,7.6349,7.5942,7.594,7.5938,0,0,7.473,7.481,7.4975,7.5057,7.5178,7.522,7.5259,7.5377,7.5414,7.5611,7.5591,7.5718,7.5953,7.6039,7.6113,7.6376,7.6355,7.6419,7.6542,7.6665,7.6694,7.672,7.6813,7.6846,7.644,7.6441,7.6441,0,7.4823,7.5035,7.5061,7.5217,7.53,7.5279,7.5446,7.5525,7.5684,7.5742,7.569,7.5985,7.6064,7.6301,7.6365,7.6427,7.6473,7.6403,7.6688,7.6714,7.6738,7.6827,7.6862,7.6447,7.6447,7.6446,7.6445,0,7.5143,7.5291,7.541,7.5563,7.5659,7.582,7.587,7.5965,7.5969,7.6016,7.6216,7.631,7.6459,7.6517,7.6523,7.6756,7.6724,7.668,7.6587,7.678,7.6863,7.6898,7.6457,7.6455,7.6453,7.6451,0,0,7.5424,7.559,7.5633,7.5702,7.5835,7.595,7.611,7.6255,7.6335,7.6446,7.658,7.6781,7.674,7.6825,7.6841,7.6949,7.715,7.6892,7.6895,7.6935,7.7411,7.7442,7.7481,7.7137,7.7144,7.7149,7.74,0,7.5667,7.5948,7.5976,7.6228,7.6364,7.6347,7.6487,7.6584,7.6632,7.6755,7.6808,7.6949,7.6885,7.6936,7.7043,7.7103,7.7246,7.7086,7.7262,7.7268,7.7231,7.7525,7.7559,7.7791,7.7433,7.7439,7.7443,0,7.5987,7.6106,7.6371,7.6485,7.6543,7.6667,7.6803,7.6921,7.7031,7.7058,7.7152,7.7154,7.7319,7.722,7.7447,7.7338,7.7412,7.7453,7.7462,7.7479,7.7366,7.7548,7.7866,7.79,7.7495,7.7491,7.7487,0,7.6163,7.639,7.6578,7.6638,7.6775,7.6863,7.6925,7.7028,7.7114,7.7233,7.7288,7.7425,7.75,7.7606,7.7645,7.7569,7.7871,7.7775,7.7897,7.7896,7.796,7.7955,7.8293,7.8011,7.801,7.801,7.8009,0,7.643,7.6593,7.6659,7.6774,7.6956,7.6987,7.7167,7.7224,7.7316,7.7442,7.7437,7.7556,7.76,7.7726,7.7758,7.7941,7.7975,7.8002,7.8008,7.8001,7.7998,7.8049,7.8033,7.8019,7.8017,7.8015,7.8014,0,7.6658,7.6709,7.6912,7.7026,7.7058,7.7187,7.7284,7.7396,7.7442,7.7602,7.7641,7.7714,7.7862,7.7912,7.8092,7.8113,7.8325,7.8319,7.8288,7.8289,7.8407,7.8395,7.8789,7.8841,7.8526,7.8529,7.8532,0,7.6824,7.6949,7.7075,7.7159,7.7224,7.7359,7.7446,7.7482,7.7573,7.7707,7.7803,7.7949,7.8068,7.8306,7.8376,7.8513,7.8508,7.8637,7.8529,7.8518,7.8508,7.85,7.8512,7.8656,7.866,7.8662,7.8665,0,7.7113,7.7132,7.7257,7.7392,7.7496,7.7604,7.7708,7.7777,7.7828,7.7931,7.8082,7.8174,7.8357,7.8503,7.8643,7.8707,7.8695,7.8698,7.8733,7.8727,7.8704,7.8716,7.8341,7.8689,7.8686,7.8685,7.8683,7.8682,7.7315,7.7424,7.753,7.767,7.7752,7.7849,7.7959,7.8019,7.8145,7.8296,7.831,7.8473,7.8579,7.8766,7.8836,7.8964,7.8928,7.8979,7.8992,7.9004,7.9012,7.8685,7.899,7.8989,7.8989,7.8988,7.8988,0,7.7602,7.7669,7.7797,7.7943,7.8053,7.8031,7.8146,7.8239,7.8382,7.8482,7.8599,7.8772,7.8913,7.8994,7.9135,7.9222,7.9219,7.9257,7.925,7.9265,7.9037,7.8992,7.9257,7.9256,7.9256,7.9256,7.9256,7.9256,7.7764,7.7948,7.7979,7.8204,7.827,7.8428,7.8495,7.8585,7.8665,7.8858,7.8975,7.9026,7.9118,7.9266,7.9394,7.9414,7.9466,7.9507,7.9524,7.9309,7.9281,7.9255,7.9212,7.9519,7.9519,7.974,7.9742,7.9744]},{"header":{"parameterUnit":"m.s-1","parameterCategory":1,"la1":30.2991,"la2":30.254,"lo1":-89.0895,"lo2":-89.0444,"dy":0.0017,"dx":0.0017,"nx":28,"ny":28,"refTime":"2024-06-27T09:00:00:Z","depth":0,"parameterNumber":3,"parameterNumberName":"V-component_of_WINDS"},"data":[0,0,0,0,0,0,0,0,0,0,0,0,0,0,0,0,0,0,0,0,0,0,0,0,0,0,0,0,0,0,0,0,0,0,0,0,0,0,0,0,0,0,0,0,0,0,0,0,0,0,0,0,0,0,0,0,0,0,1.4519,1.452,0,1.4592,1.4593,1.4594,1.4607,1.4607,1.4606,1.4605,1.4678,1.4681,1.4683,0,0,0,0,0,0,0,0,0,0,0,0,0,1.4388,1.439,1.4519,1.452,1.4521,1.4592,1.4593,1.4594,1.4607,1.4607,1.4606,1.4605,1.4678,1.4681,1.4684,0,0,0,0,0,0,0,0,0,0,0,0,0,1.4451,1.4391,1.4519,1.4536,1.4538,1.4592,1.4593,1.4594,1.4607,1.4607,1.4606,1.4605,1.4677,1.468,1.4684,1.4725,0,0,1.4695,1.4697,0,0,0,0,0,0,0,0,1.4448,1.4456,1.4533,1.4535,1.4538,1.459,1.4573,1.4638,1.4608,1.4581,1.4605,1.4604,1.4649,1.4655,1.4671,1.4728,1.4731,1.4696,1.4698,1.47,1.4701,0,0,0,0,0,0,0,1.4443,1.4453,1.4548,1.4534,1.4537,1.4539,1.4547,1.4586,1.4619,1.4583,1.4585,1.4593,1.4651,1.4667,1.4673,1.4732,1.4696,1.4699,1.4701,1.4703,1.4824,1.4824,0,0,0,0,0,0,1.4436,1.4449,1.4545,1.455,1.449,1.4542,1.4551,1.4574,1.4619,1.4625,1.4594,1.4593,1.4661,1.4668,1.4675,1.4725,1.47,1.4703,1.4705,1.4823,1.4824,1.4825,0,0,0,0,0,0,1.4433,1.4445,1.4542,1.45,1.4513,1.4545,1.4571,1.4576,1.4592,1.4627,1.4633,1.4605,1.4661,1.467,1.4712,1.4727,1.4705,1.4708,1.4821,1.4823,1.4824,1.4824,0,0,0,0,0,0,1.4429,1.4443,1.446,1.45,1.4515,1.4579,1.4572,1.4578,1.4599,1.4599,1.4639,1.4644,1.4661,1.4706,1.4715,1.4732,1.4711,1.482,1.4822,1.4824,1.4823,1.4825,1.4827,0,0,0,0,0,1.4425,1.4457,1.4461,1.4473,1.4536,1.458,1.4588,1.4607,1.46,1.4617,1.4638,1.4643,1.4724,1.471,1.4721,1.4739,1.4819,1.4822,1.4824,1.4822,1.4825,1.4827,0,0,0,0,0,0,1.4418,1.4463,1.4468,1.4514,1.4543,1.4582,1.4603,1.461,1.4641,1.464,1.4661,1.467,1.471,1.4729,1.4713,1.4779,1.4771,1.4775,1.4766,1.4769,1.4771,1.4766,1.4714,0,0,0,0,0,1.4422,1.4454,1.4491,1.4529,1.4543,1.457,1.459,1.4602,1.4632,1.4645,1.467,1.4698,1.473,1.475,1.4782,1.4825,1.4833,1.4842,1.4845,1.4846,1.485,1.4872,1.4876,1.4832,1.4832,1.4832,0,0,1.4431,1.4459,1.4478,1.4528,1.4552,1.4583,1.4581,1.4615,1.4638,1.465,1.469,1.4709,1.4743,1.4785,1.4805,1.4802,1.4864,1.4849,1.485,1.4853,1.4875,1.4879,1.4883,1.4833,1.4833,1.4833,0,0,1.4463,1.4488,1.4521,1.4545,1.458,1.4598,1.4606,1.4644,1.4657,1.4698,1.4707,1.4734,1.4789,1.4811,1.483,1.4868,1.4873,1.4877,1.4889,1.4911,1.4914,1.4918,1.493,1.4934,1.4881,1.4881,1.4881,0,1.4469,1.4518,1.4537,1.4571,1.4591,1.4603,1.4636,1.4658,1.4702,1.4715,1.4711,1.4778,1.4802,1.4849,1.4857,1.4873,1.4881,1.4873,1.4912,1.4916,1.4919,1.4931,1.4936,1.4881,1.4881,1.4881,1.4881,0,1.4523,1.4556,1.4579,1.4621,1.4644,1.4677,1.47,1.4721,1.473,1.4748,1.4788,1.4816,1.4853,1.4864,1.4874,1.4912,1.4909,1.4908,1.4901,1.4923,1.4935,1.494,1.4881,1.4881,1.4881,1.4881,0,0,1.4554,1.4605,1.4613,1.4631,1.4671,1.4696,1.4729,1.4764,1.4781,1.481,1.4837,1.4882,1.4881,1.4902,1.4914,1.4933,1.4959,1.493,1.4931,1.4934,1.5001,1.5001,1.5006,1.4962,1.4963,1.4964,1.4998,0,1.459,1.4649,1.4667,1.4716,1.4746,1.4756,1.4784,1.481,1.4827,1.4854,1.4872,1.4903,1.49,1.4913,1.4932,1.4952,1.4973,1.495,1.4986,1.4988,1.4978,1.5012,1.5013,1.5043,1.5002,1.5003,1.5004,0,1.464,1.467,1.4723,1.4756,1.477,1.4795,1.4827,1.4854,1.4883,1.4893,1.4916,1.4925,1.4958,1.4948,1.4992,1.4976,1.4991,1.5003,1.5005,1.5009,1.4997,1.5017,1.5054,1.5058,1.5011,1.5011,1.501,0,1.4656,1.471,1.4748,1.4763,1.4804,1.4821,1.4838,1.4866,1.4886,1.4914,1.4927,1.4958,1.4975,1.4999,1.5016,1.5007,1.5058,1.505,1.5066,1.5066,1.5077,1.5076,1.5117,1.5088,1.5088,1.5087,1.5087,0,1.4695,1.4726,1.4755,1.4779,1.4813,1.4832,1.4865,1.4883,1.4908,1.4933,1.4944,1.4967,1.4989,1.5015,1.5028,1.5062,1.507,1.5078,1.5081,1.5077,1.5076,1.5088,1.5086,1.5089,1.5088,1.5088,1.5088,0,1.4719,1.474,1.4782,1.4816,1.4826,1.4849,1.4878,1.49,1.4917,1.4949,1.4957,1.4983,1.5014,1.5033,1.5072,1.5081,1.5117,1.512,1.5108,1.5109,1.5125,1.5123,1.5174,1.5181,1.5148,1.5148,1.5148,0,1.4742,1.4767,1.4803,1.4821,1.4839,1.4868,1.4888,1.4907,1.4926,1.496,1.4978,1.5009,1.5035,1.5084,1.5105,1.5134,1.5138,1.5153,1.5142,1.5136,1.5137,1.5135,1.5137,1.5155,1.5156,1.5156,1.5156,0,1.478,1.4789,1.4818,1.4849,1.4873,1.4898,1.4924,1.4938,1.496,1.4982,1.5014,1.5034,1.5073,1.5104,1.5135,1.5151,1.5157,1.5159,1.5165,1.5161,1.5152,1.5156,1.5112,1.5158,1.5158,1.5158,1.5158,1.5158,1.4804,1.4826,1.4855,1.4885,1.4906,1.493,1.4951,1.497,1.4997,1.5031,1.504,1.5073,1.5099,1.5141,1.5158,1.5183,1.5181,1.5188,1.519,1.5192,1.5192,1.5148,1.5189,1.5188,1.5188,1.5188,1.5188,0,1.4842,1.4861,1.4889,1.4924,1.4948,1.4951,1.4979,1.4998,1.5027,1.5052,1.5077,1.5112,1.5141,1.5164,1.5194,1.5209,1.5212,1.5216,1.5215,1.5218,1.5193,1.5185,1.5213,1.5213,1.5213,1.5213,1.5213,1.5213,1.4865,1.4901,1.4912,1.4958,1.4976,1.5009,1.5024,1.5045,1.5064,1.5103,1.5128,1.5142,1.5165,1.5196,1.5223,1.5228,1.5238,1.5242,1.5248,1.5223,1.522,1.5218,1.5211,1.5244,1.5244,1.5271,1.5272,1.5272]}]]